Time,TemperatureF,DewpointF,PressureIn,WindDirection,WindDirectionDegrees,WindSpeedMPH,WindSpeedGustMPH,Humidity,HourlyPrecipIn,Conditions,Clouds,dailyrainin,SoftwareType,DateUTC
2013-01-04 00:20:00,53.4,41.9,29.18,WNW,294,2.0,4.0,65,0.00,00:20,,0.00,WeatherDisplay:WD co,2013-01-03 22:20:00,
2013-01-04 01:35:00,52.2,42.3,29.16,NW,319,0.0,2.0,69,0.00,01:35,,0.00,WeatherDisplay:WD co,2013-01-03 23:35:00,
2013-01-04 01:55:00,51.8,41.6,29.16,NW,317,0.0,3.0,68,0.00,01:55,,0.00,WeatherDisplay:WD co,2013-01-03 23:55:00,
2013-01-04 02:35:00,52.7,40.9,29.15,WNW,302,0.0,3.0,64,0.00,02:35,,0.00,WeatherDisplay:WD co,2013-01-04 00:35:00,
2013-01-04 03:25:00,52.2,39.9,29.14,WNW,288,1.0,2.0,63,0.00,03:25,,0.00,WeatherDisplay:WD co,2013-01-04 01:25:00,
2013-01-04 03:45:00,51.6,39.8,29.13,SW,217,0.0,1.0,64,0.00,03:45,,0.00,WeatherDisplay:WD co,2013-01-04 01:45:00,
2013-01-04 04:00:00,50.7,40.2,29.12,West,276,0.0,1.0,67,0.00,04:00,,0.00,WeatherDisplay:WD co,2013-01-04 02:00:00,
2013-01-04 04:25:00,50.0,39.8,29.12,WNW,292,0.0,1.0,68,0.00,04:25,,0.00,WeatherDisplay:WD co,2013-01-04 02:25:00,
2013-01-04 04:35:00,50.0,39.8,29.12,NW,315,0.0,2.0,68,0.00,04:35,,0.00,WeatherDisplay:WD co,2013-01-04 02:35:00,
2013-01-04 04:40:00,49.8,39.7,29.11,WNW,301,0.0,1.0,68,0.00,04:40,,0.00,WeatherDisplay:WD co,2013-01-04 02:40:00,
2013-01-04 05:00:00,49.3,39.5,29.10,NW,311,1.0,2.0,69,0.00,05:00,,0.00,WeatherDisplay:WD co,2013-01-04 03:00:00,
2013-01-04 05:15:00,49.5,39.0,29.10,NW,313,1.0,4.0,67,0.00,05:15,,0.00,WeatherDisplay:WD co,2013-01-04 03:15:00,
2013-01-04 05:45:00,49.8,38.5,29.09,NW,326,0.0,4.0,65,0.00,05:45,,0.00,WeatherDisplay:WD co,2013-01-04 03:45:00,
2013-01-04 05:50:00,49.8,38.5,29.09,NNW,328,1.0,3.0,65,0.00,05:50,,0.00,WeatherDisplay:WD co,2013-01-04 03:50:00,
2013-01-04 06:15:00,47.8,38.2,29.09,WNW,293,0.0,1.0,69,0.00,06:15,,0.00,WeatherDisplay:WD co,2013-01-04 04:15:00,
2013-01-04 06:35:00,48.2,39.2,29.09,NW,311,2.0,4.0,71,0.00,06:35,,0.00,WeatherDisplay:WD co,2013-01-04 04:35:00,
2013-01-04 06:45:00,49.8,40.1,29.08,NW,304,3.0,6.0,69,0.00,06:45,,0.00,WeatherDisplay:WD co,2013-01-04 04:45:00,
2013-01-04 07:30:00,49.8,39.7,29.09,NW,304,1.0,4.0,68,0.00,07:30,,0.00,WeatherDisplay:WD co,2013-01-04 05:30:00,
2013-01-04 07:40:00,49.5,39.3,29.09,WNW,288,0.0,1.0,68,0.00,07:40,,0.00,WeatherDisplay:WD co,2013-01-04 05:40:00,
2013-01-04 07:55:00,48.6,39.2,29.09,SW,236,0.0,0.0,70,0.00,07:55,,0.00,WeatherDisplay:WD co,2013-01-04 05:55:00,
2013-01-04 08:35:00,50.7,43.1,29.09,East,90,1.0,2.0,75,0.00,08:35,,0.00,WeatherDisplay:WD co,2013-01-04 06:35:00,
2013-01-04 08:50:00,53.1,43.2,29.09,WNW,297,1.0,2.0,69,0.00,08:50,,0.00,WeatherDisplay:WD co,2013-01-04 06:50:00,
2013-01-04 09:00:00,54.5,44.5,29.09,NW,306,0.0,1.0,69,0.00,09:00,,0.00,WeatherDisplay:WD co,2013-01-04 07:00:00,
2013-01-04 09:35:00,60.8,45.9,29.08,SW,230,0.0,0.0,58,0.00,09:35,,0.00,WeatherDisplay:WD co,2013-01-04 07:35:00,
2013-01-04 10:45:00,58.6,43.0,29.08,WNW,293,3.0,5.0,56,0.00,10:45,,0.00,WeatherDisplay:WD co,2013-01-04 08:45:00,
2013-01-04 10:50:00,58.6,42.5,29.07,NW,310,3.0,7.0,55,0.00,10:50,,0.00,WeatherDisplay:WD co,2013-01-04 08:50:00,
2013-01-04 11:00:00,58.5,41.9,29.07,WSW,255,3.0,7.0,54,0.00,11:00,,0.00,WeatherDisplay:WD co,2013-01-04 09:00:00,
2013-01-04 11:50:00,61.0,41.7,29.05,West,273,3.0,6.0,49,0.00,11:50,,0.00,WeatherDisplay:WD co,2013-01-04 09:50:00,
2013-01-04 11:55:00,61.7,43.4,29.04,SW,235,0.0,4.0,51,0.00,11:55,,0.00,WeatherDisplay:WD co,2013-01-04 09:55:00,
2013-01-04 12:20:00,62.8,41.7,29.02,SW,227,0.0,4.0,46,0.00,12:20,,0.00,WeatherDisplay:WD co,2013-01-04 10:20:00,
2013-01-04 12:25:00,63.5,42.9,29.01,SW,227,0.0,1.0,47,0.00,12:25,,0.00,WeatherDisplay:WD co,2013-01-04 10:25:00,
2013-01-04 13:30:00,63.7,41.9,28.98,West,269,0.0,4.0,45,0.00,13:30,,0.00,WeatherDisplay:WD co,2013-01-04 11:30:00,
2013-01-04 13:40:00,64.8,42.3,28.98,SSW,201,0.0,1.0,44,0.00,13:40,,0.00,WeatherDisplay:WD co,2013-01-04 11:40:00,
2013-01-04 14:00:00,64.0,41.1,28.96,SW,233,5.0,7.0,43,0.00,14:00,,0.00,WeatherDisplay:WD co,2013-01-04 12:00:00,
2013-01-04 14:40:00,62.6,42.6,28.96,SSW,208,2.0,4.0,48,0.00,14:40,,0.00,WeatherDisplay:WD co,2013-01-04 12:40:00,
2013-01-04 15:00:00,62.4,44.0,28.95,South,189,0.0,2.0,51,0.00,15:00,,0.00,WeatherDisplay:WD co,2013-01-04 13:00:00,
2013-01-04 15:15:00,62.2,43.9,28.95,SW,217,0.0,1.0,51,0.00,15:15,,0.00,WeatherDisplay:WD co,2013-01-04 13:15:00,
2013-01-04 16:00:00,60.6,42.4,28.94,SSW,193,6.0,11.0,51,0.00,16:00,,0.00,WeatherDisplay:WD co,2013-01-04 14:00:00,
2013-01-04 17:20:00,58.1,44.3,28.94,SSW,212,0.0,1.0,60,0.00,17:20,,0.00,WeatherDisplay:WD co,2013-01-04 15:20:00,
2013-01-04 17:25:00,57.4,44.5,28.94,SW,216,0.0,1.0,62,0.00,17:25,,0.00,WeatherDisplay:WD co,2013-01-04 15:25:00,
2013-01-04 17:45:00,56.1,43.7,28.94,WNW,288,0.0,1.0,63,0.00,17:45,,0.00,WeatherDisplay:WD co,2013-01-04 15:45:00,
2013-01-04 18:40:00,55.0,44.7,28.94,WNW,299,0.0,2.0,68,0.00,18:40,,0.00,WeatherDisplay:WD co,2013-01-04 16:40:00,